Location: Namasale
(1.5000°N, 32.6167°E)
Time: 21:29:23
(UTC+00:00)

Vanguard 3 - Pass Details

Date: 21 April 2021
Orbit: 507 x 3262 km, 33.4° (Epoch: 16 May)

Event Time Altitude Azimuth Distance (km) Brightness Sun altitude
Rises 18:34:48 0° 234° (SW) 6,905 12.3 -40.1°
Reaches altitude 10° 18:39:54 10° 234° (SW) 5,600 11.7 -41.3°
Enters shadow 18:53:23 67° 238° (WSW) 2,160 9.1 -44.5°
